Tracking 31027 objects as of 19-Jul-2025
HD Live streaming from Space Station
objects crossing your sky now

FENGYUN 1C DEB

Track FENGYUN 1C DEB now!
10-day predictions


NORAD ID: 35203
Int'l Code: 1999-025DPK
Perigee: 780.1 km
Apogee: 1,562.9 km
Inclination: 102.1 °
Period: 108.7 minutes
Semi major axis: 7542 km
RCS: 0.0151 m2 (small)
Launch date: May 10, 1999
Source: People's Republic of China (PRC)
Launch site: Taiyaun Space Center, China (TSC)

Note: This is SATELLITE DEBRIS
Your satellite tracking list
MAROC TUBSAT
Track 1 satellite(s)




NASA's NSSDC Master Catalog

Two Line Element Set (TLE):
1 35203U 99025DPK 25198.65157977  .00001055  00000-0  12313-2 0  9993
2 35203 102.0604 141.2643 0518965 122.2841 242.9639 13.25346566576883
Source of the keplerian elements: AFSPC